STARLINK-32492, 62050

Orbit data source: Space-Track

STARLINK-32492, 62050 is a payload satellite owned by SpaceX/Seattle (US) in LEO that was launched on Thu, 21 Nov 2024 UTC via an FALCON 9 launch vehicle from the Air Force Eastern Test Range (AFETR). Payloads include a variety of satellites, spacecraft, and rockets equipped with specific instruments for various scientific and technological missions. These include communications satellites like Starlink; space stations such as the ISS; scientific satellites like the Hubble; Earth observation satellites from companies like Planet Labs, Umbra, and HawkEye 360; GPS; miniature CubeSats for education and research; and military/defense satellites.

Loading next visibility...
STARLINK-32492 details
Identifier
62050, 2024-216U
Orbit
LEO
Last TLE update10 hours ago
Origin
Flag of USSpaceX/Seattle (US)
ManufacturerSpaceX/Seattle
MissionOperational spacecraft
Bus & MotorSTARLINK V2M, Unknown motor
Mass730 kg wet, ~700 kg dry
Launch date (UTC)
2024-11-21 (1 month ago)
Launch vehicle
FALCON 9
Launch site
Air Force Eastern Test Range (AFETR)
Object type
Payload
Rocket body
Debris
Shape & HBRUnknown
Radar Cross SectionLarge (>1 m²)

Expand to show TLE details & history

TLE from 10 hours ago
0 STARLINK-32492
1 62050U 24216U   24361.01186906 -.00000904  00000-0 -14383-4 0  9993
2 62050  43.0029 234.6783 0001537 253.2614 106.8074 15.40683197  5392
Epoch: 2024-12-26T00:17Z
Definitive object data (Epoch: 2024-12-26T00:17:05.486Z)
Latitude-0.00003°
Longitude135.40803°
Altitude444.169 km
Speed7.647 km/s
True Right ascension15h 38m 42s
True Declination0° 00' 00"
Sunlit
Object was in daylight at TLE epoch
Visualization TLE readout
Latitude14.28094°
Longitude-62.74741°
Altitude443.263 km
Speed7.649 km/s
Apparent Right ascension00h 27m 20s
Apparent Declination-14° 19' 54"
Sunlit
Object is in full shadow
Visualization observer readout
Local Sidereal Time09:39:33
Azimuth292.822° NW
Elevation-45.36°
Doppler factor1
Orbital elements
Apogee altitude447.096 km
Perigee altitude444.999 km
Semi-major axis6,824.184 km
Eccentricity0.0001537
Inclination43.0029°
RAAN234.6783°
Arg. of periapsis253.2614°
True anomaly106.82426°
Mean anomaly106.8074°
Eccentric anomaly106.81583°
Mean motion3.85006 °/min
BSTAR-0.000014383
Orbital period93.51 mins
Loading maneuver chart data...
Loading historical data...
Loading historical data...
Loading historical data...
Loading historical data...
Loading historical data...
Loading historical data...
Loading historical data...

STARLINK-32492 Visibility forecast

Observer location: undefined°, undefined

Span
Click to sort rows by Start time (UTC) header in descending order
Start Az.
Max El. time (UTC)
Max El. Az.
Max El.
End time (UTC)
End Az.
5 mins2024-12-26 19:10:23.588Z215.561° SW2024-12-26 19:12:23.588Z170.026° S31.639°2024-12-26 19:15:23.588Z86.077° E
5 mins2024-12-26 20:48:23.588Z270.378° WNW2024-12-26 20:50:23.588Z312.083° NW39.905°2024-12-26 20:53:23.588Z67.446° ENE
5 mins2024-12-26 22:27:23.588Z299.916° NW2024-12-26 22:29:23.588Z26.647° NE37.706°2024-12-26 22:32:23.588Z83.887° E
5 mins2024-12-27 00:05:23.588Z277.731° WNW2024-12-27 00:07:23.588Z188.455° SSW41.449°2024-12-27 00:10:23.588Z123.074° SE
|